User: anonymous   Login
Location: Downe
(51.3167°N, 0.0500°E)
Time: 23:52:15
(UTC+00:00)
Language:

Cosmos 2360 Rocket - Orbit

View from above orbital plane
View from above orbital plane
View from above satellite
View from above satellite

Ground track
Ground track

The orbit data is extracted from the following two-line orbital elements,

1 25407U 98045B   20023.79525068 -.00000075  00000-0 -14079-4 0  9992
2 25407  71.0102 203.7151 0008814 212.9422 147.1153 14.15798590110736
Epoch (UTC): 23 January 2020 19:05:09
Eccentricity: 0.0008814
inclination: 71.0102°
perigee height: 833 km
apogee height: 846 km
right ascension of ascending node: 203.7151°
argument of perigee: 212.9422°
revolutions per day: 14.15798590
mean anomaly at epoch: 147.1153°
orbit number at epoch: 11073

The dashed part of the orbit path shows where the satellite is in the earth's shadow,  

DLR